Weather History for Dayton, OH

Change the Weather History Date:

Tuesday, April 1, 2014

  Actual Average Record
Temperature  
Mean Temperature 62 °F 46 °F  
Max Temperature 72 °F 56 °F 79 °F (1986)
Min Temperature 51 °F 37 °F 18 °F (1923)
Degree Days  
Heating Degree Days 3 19  
Month to date heating degree days 3 19  
Since 1 July heating degree days 5479 5058  
Cooling Degree Days 0 0  
Month to date cooling degree days 0 0  
Year to date cooling degree days 0 0  
Growing Degree Days 12 (Base 50)    
Moisture  
Dew Point 33 °F    
Average Humidity 34    
Maximum Humidity 47    
Minimum Humidity 20    
Precipitation  
Precipitation T in 0.13 in 1.36 in (1970)
Month to date precipitation T 0.13  
Year to date precipitation 7.60 8.42  
Snow  
Snow 0.00 in 0.00 in 3.00 in (1924)
Month to date snowfall 0.0 0.0  
Since 1 July snowfall 52.5 22.7  
Snow Depth 0.00 in    
Sea Level Pressure  
Sea Level Pressure 29.94 in    
Wind  
Wind Speed 17 mph (SW)    
Max Wind Speed 36 mph    
Max Gust Speed 45 mph    
Visibility 10 miles    
Events Rain    
T = Trace of Precipitation, MM = Missing Value Source: NWS Daily Summary

Daily Weather History Graph

Daily Weather History Graph

Search for Another Location

Airport:

Trip Planner

Search our weather history database for the weather conditions in past years. The results will help you decide how hot, cold, wet, or windy it might be!

Date:

Astronomy

Apr. 01, 2014 Rise Set
Actual Time 7:20 AM EDT 8:01 PM EDT
Civil Twilight 6:53 AM EDT 8:28 PM EDT
Nautical Twilight 6:21 AM EDT 9:00 PM EDT
Astronomical Twilight 5:48 AM EDT 9:34 PM EDT
Moon 8:23 AM EDT (4/1) 10:22 PM EDT (4/1)
Length of Visible Light 13h 34m
Length of Day
12h 40m
Waxing Crescent, 4% of the Moon is Illuminated
Apr 1
Waxing Crescent
Apr 7
First Quarter
Apr 15
Full
Apr 22
Last Quarter
Apr 29
New

Hourly Weather History & Observations

Time (EDT) Temp. Dew Point Humidity Pressure Visibility Wind Dir Wind Speed Gust Speed Precip Events Conditions
12:56 AM 55.9 °F 28.9 °F 36% 29.97 in 10.0 mi SSE 16.1 mph - N/A   Mostly Cloudy
1:56 AM 55.9 °F 28.9 °F 36% 29.95 in 10.0 mi SSE 15.0 mph - N/A   Overcast
2:56 AM 55.9 °F 32.0 °F 40% 29.96 in 10.0 mi South 8.1 mph - 0.00 in   Overcast
3:56 AM 55.0 °F 33.1 °F 43% 29.95 in 10.0 mi SSE 9.2 mph - 0.00 in Rain Light Rain
4:56 AM 52.0 °F 35.1 °F 53% 29.94 in 10.0 mi North 4.6 mph - 0.00 in   Overcast
5:56 AM 53.1 °F 34.0 °F 48% 29.91 in 10.0 mi SSE 6.9 mph - N/A   Overcast
6:56 AM 55.9 °F 33.1 °F 42% 29.89 in 10.0 mi South 12.7 mph - N/A   Mostly Cloudy
7:56 AM 55.9 °F 35.1 °F 45% 29.90 in 10.0 mi South 12.7 mph - N/A   Mostly Cloudy
8:56 AM 59.0 °F 37.0 °F 44% 29.90 in 10.0 mi SSW 13.8 mph 21.9 mph N/A   Partly Cloudy
9:56 AM 63.0 °F 37.9 °F 40% 29.90 in 10.0 mi SW 20.7 mph 32.2 mph N/A   Partly Cloudy
10:56 AM 64.0 °F 39.9 °F 41% 29.90 in 10.0 mi SW 27.6 mph 34.5 mph N/A   Partly Cloudy
11:56 AM 66.9 °F 41.0 °F 39% 29.90 in 10.0 mi WSW 28.8 mph 35.7 mph N/A   Partly Cloudy
12:56 PM 69.1 °F 39.0 °F 33% 29.89 in 10.0 mi WSW 25.3 mph 35.7 mph N/A   Scattered Clouds
1:56 PM 71.1 °F 37.0 °F 29% 29.89 in 10.0 mi WSW 31.1 mph 43.7 mph N/A   Scattered Clouds
2:56 PM 72.0 °F 35.1 °F 26% 29.90 in 10.0 mi WSW 34.5 mph 44.9 mph N/A   Partly Cloudy
3:56 PM 72.0 °F 33.1 °F 24% 29.91 in 10.0 mi West 28.8 mph 42.6 mph N/A   Partly Cloudy
4:56 PM 70.0 °F 28.0 °F 21% 29.92 in 10.0 mi West 31.1 mph 41.4 mph N/A   Scattered Clouds
5:56 PM 69.1 °F 26.1 °F 20% 29.94 in 10.0 mi WSW 25.3 mph 36.8 mph N/A   Scattered Clouds
6:56 PM 64.9 °F 27.0 °F 24% 29.96 in 10.0 mi West 19.6 mph - N/A   Scattered Clouds
7:56 PM 63.0 °F 28.0 °F 27% 29.99 in 10.0 mi West 16.1 mph 25.3 mph N/A   Scattered Clouds
8:56 PM 57.0 °F 30.9 °F 37% 30.03 in 10.0 mi West 5.8 mph - N/A   Mostly Cloudy
9:56 PM 55.9 °F 33.1 °F 42% 30.05 in 10.0 mi West 10.4 mph - N/A   Overcast
10:56 PM 55.0 °F 32.0 °F 42% 30.06 in 10.0 mi WNW 12.7 mph - N/A   Overcast
11:56 PM 53.1 °F 33.1 °F 47% 30.07 in 10.0 mi WNW 6.9 mph - N/A   Overcast